QPF
0.00 0.00 0.00 0.00 0.00 0.00 0.00 0.00 0.00 0.00 0.00 0.00 0.00 0.00 0.00 0.00 0.00 0.00 0.00 0.00 0.00 0.00 0.01 0.01 0.00 0.00 0.01 0.01 0.02 0.02 0.03 0.04 0.04 0.04 0.05 0.04 0.04 0.04
0.00 0.00 0.00 0.00 0.00 0.00 0.00 0.00 0.00 0.00 0.00 0.00 0.00 0.00 0.00 0.00 0.00 0.00 0.00 0.00 0.00 0.01 0.01 0.00 0.00 0.00 0.01 0.02 0.02 0.03 0.04 0.04 0.04 0.05 0.05 0.05 0.06 0.06
0.00 0.00 0.00 0.00 0.00 0.00 0.00 0.00 0.00 0.00 0.00 0.00 0.00 0.00 0.00 0.00 0.00 0.00 0.00 0.00 0.00 0.00 0.00 0.00 0.01 0.01 0.02 0.02 0.02 0.03 0.03 0.03 0.03 0.04 0.05 0.06 0.06 0.06
0.00 0.00 0.00 0.00 0.00 0.00 0.00 0.00 0.00 0.00 0.00 0.00 0.00 0.00 0.00 0.00 0.00 0.00 0.00 0.00 0.00 0.00 0.00 0.00 0.01 0.01 0.02 0.02 0.03 0.04 0.04 0.05 0.06 0.06 0.06 0.06 0.06 0.06
0.00 0.00 0.00 0.00 0.00 0.00 0.00 0.00 0.00 0.00 0.00 0.00 0.00 0.00 0.00 0.00 0.00 0.00 0.00 0.00 0.00 0.00 0.00 0.00 0.01 0.01 0.02 0.03 0.03 0.03 0.03 0.03 0.03 0.02 0.03 0.03 0.03 0.03
0.00 0.00 0.00 0.00 0.00 0.00 0.00 0.00 0.00 0.00 0.00 0.01 0.01 0.01 0.01 0.01 0.00 0.00 0.00 0.00 0.00 0.00 0.00 0.00 0.00 0.01 0.01 0.01 0.01 0.01 0.01 0.01 0.02 0.02 0.02 0.02 0.03 0.03
0.00 0.00 0.00 0.00 0.00 0.00 0.00 0.00 0.00 0.01 0.02 0.03 0.03 0.03 0.01 0.00 0.00 0.00 0.00 0.00 0.00 0.00 0.00 0.00 0.00 0.00 0.00 0.00 0.00 0.00 0.01 0.01 0.02 0.03 0.03 0.04 0.04 0.04
0.00 0.00 0.00 0.00 0.00 0.00 0.00 0.01 0.02 0.04 0.06 0.07 0.05 0.01 0.00 0.00 0.00 0.01 0.01 0.01 0.01 0.00 0.00 0.00 0.00 0.00 0.00 0.00 0.00 0.00 0.01 0.01 0.02 0.02 0.03 0.03 0.03 0.03
0.00 0.00 0.00 0.00 0.00 0.00 0.00 0.02 0.03 0.04 0.05 0.03 0.01 0.00 0.00 0.01 0.01 0.02 0.02 0.02 0.01 0.00 0.00 0.01 0.00 0.00 0.00 0.00 0.00 0.00 0.00 0.01 0.01 0.02 0.03 0.03 0.03 0.03
0.00 0.00 0.00 0.00 0.00 0.01 0.03 0.05 0.03 0.02 0.00 0.00 0.00 0.00 0.00 0.00 0.01 0.02 0.03 0.02 0.01 0.00 0.00 0.00 0.00 0.00 0.00 0.00 0.00 0.00 0.00 0.01 0.01 0.02 0.03 0.04 0.05 0.06
0.00 0.00 0.00 0.00 0.01 0.03 0.05 0.04 0.01 0.00 0.00 0.00 0.01 0.00 0.00 0.00 0.01 0.04 0.05 0.04 0.02 0.00 0.00 0.00 0.00 0.00 0.00 0.00 0.00 0.00 0.00 0.00 0.01 0.01 0.02 0.02 0.03 0.04
0.00 0.00 0.00 0.01 0.02 0.03 0.02 0.00 0.00 0.00 0.01 0.00 0.00 0.00 0.00 0.00 0.00 0.02 0.07 0.10 0.05 0.02 0.00 0.01 0.02 0.02 0.03 0.00 0.00 0.00 0.00 0.00 0.00 0.00 0.01 0.02 0.03 0.04
0.00 0.00 0.00 0.01 0.02 0.01 0.01 0.00 0.00 0.01 0.01 0.00 0.00 0.00 0.00 0.00 0.00 0.00 0.03 0.11 0.13 0.07 0.01 0.06 0.07 0.03 0.04 0.02 0.00 0.00 0.00 0.00 0.00 0.00 0.01 0.03 0.06 0.11
0.00 0.00 0.00 0.01 0.01 0.00 0.00 0.00 0.01 0.01 0.00 0.00 0.00 0.00 0.00 0.00 0.00 0.00 0.00 0.02 0.07 0.11 0.06 0.08 0.11 0.07 0.07 0.04 0.01 0.00 0.00 0.00 0.01 0.02 0.03 0.05 0.09 0.13
0.00 0.01 0.01 0.00 0.00 0.00 0.00 0.00 0.00 0.00 0.00 0.01 0.01 0.00 0.00 0.00 0.00 0.00 0.00 0.00 0.00 0.01 0.02 0.04 0.08 0.08 0.08 0.07 0.04 0.01 0.02 0.01 0.01 0.04 0.06 0.08 0.11 0.14
0.00 0.00 0.00 0.00 0.00 0.00 0.00 0.00 0.00 0.00 0.01 0.01 0.01 0.00 0.00 0.00 0.00 0.00 0.01 0.01 0.01 0.00 0.00 0.01 0.03 0.07 0.07 0.04 0.07 0.06 0.06 0.08 0.05 0.06 0.09 0.09 0.12 0.15
0.00 0.00 0.00 0.00 0.00 0.00 0.00 0.00 0.00 0.00 0.00 0.00 0.01 0.01 0.00 0.00 0.00 0.00 0.01 0.02 0.02 0.01 0.01 0.00 0.00 0.01 0.03 0.03 0.05 0.05 0.06 0.09 0.13 0.15 0.14 0.15 0.14 0.15
0.00 0.00 0.00 0.00 0.00 0.00 0.00 0.00 0.00 0.00 0.00 0.01 0.01 0.02 0.02 0.01 0.01 0.00 0.01 0.02 0.03 0.02 0.02 0.01 0.01 0.01 0.00 0.01 0.05 0.11 0.12 0.15 0.16 0.17 0.18 0.20 0.18 0.16
0.00 0.00 0.00 0.00 0.00 0.00 0.01 0.01 0.01 0.00 0.01 0.01 0.02 0.03 0.03 0.02 0.01 0.01 0.01 0.02 0.02 0.02 0.02 0.03 0.03 0.03 0.02 0.02 0.02 0.09 0.20 0.18 0.15 0.19 0.22 0.28 0.35 0.30
0.00 0.00 0.00 0.00 0.01 0.01 0.01 0.01 0.01 0.01 0.01 0.01 0.02 0.03 0.03 0.02 0.02 0.02 0.02 0.03 0.03 0.02 0.02 0.02 0.03 0.05 0.09 0.10 0.08 0.08 0.12 0.17 0.19 0.27 0.27 0.24 0.26 0.22
0.00 0.00 0.00 0.01 0.01 0.01 0.01 0.01 0.01 0.01 0.01 0.02 0.02 0.03 0.03 0.03 0.02 0.02 0.02 0.02 0.03 0.03 0.02 0.02 0.04 0.07 0.07 0.04 0.04 0.05 0.07 0.11 0.20 0.26 0.22 0.11 0.08 0.10
0.00 0.00 0.00 0.01 0.01 0.01 0.01 0.01 0.01 0.01 0.01 0.02 0.02 0.03 0.03 0.03 0.03 0.02 0.03 0.03 0.03 0.03 0.03 0.02 0.02 0.03 0.02 0.02 0.02 0.03 0.04 0.04 0.07 0.10 0.17 0.19 0.20 0.33
0.00 0.01 0.01 0.01 0.02 0.01 0.01 0.01 0.01 0.01 0.02 0.03 0.04 0.04 0.03 0.03 0.02 0.03 0.04 0.04 0.03 0.02 0.01 0.01 0.01 0.01 0.02 0.02 0.01 0.01 0.02 0.02 0.04 0.06 0.16 0.24 0.29 0.37
MSLP
1019.69 1019.72 1019.70 1019.59 1019.36 1019.00 1018.49 1017.85 1017.12 1016.33 1015.53 1014.76 1014.04 1013.39 1012.81 1012.29 1011.80 1011.31 1010.80 1010.26 1009.67 1009.04 1008.38 1007.70 1007.02 1006.36 1005.73 1005.14 1004.61 1004.12 1003.68 1003.29 1002.93 1002.61 1002.31 1002.03 1001.77 1001.52
1019.36 1019.36 1019.31 1019.19 1018.96 1018.59 1018.10 1017.48 1016.76 1015.98 1015.18 1014.39 1013.65 1012.96 1012.34 1011.76 1011.22 1010.68 1010.13 1009.55 1008.93 1008.27 1007.59 1006.90 1006.20 1005.53 1004.88 1004.28 1003.73 1003.23 1002.77 1002.35 1001.97 1001.61 1001.28 1000.96 1000.65 1000.37
1018.98 1018.92 1018.83 1018.67 1018.42 1018.05 1017.55 1016.94 1016.24 1015.48 1014.68 1013.89 1013.13 1012.42 1011.76 1011.14 1010.54 1009.96 1009.36 1008.74 1008.09 1007.42 1006.72 1006.01 1005.30 1004.62 1003.96 1003.34 1002.77 1002.25 1001.76 1001.32 1000.91 1000.53 1000.17 999.83 999.49 999.18
1018.58 1018.47 1018.32 1018.11 1017.81 1017.42 1016.91 1016.30 1015.61 1014.86 1014.08 1013.29 1012.52 1011.79 1011.10 1010.44 1009.80 1009.17 1008.54 1007.88 1007.20 1006.50 1005.78 1005.05 1004.33 1003.62 1002.94 1002.31 1001.71 1001.16 1000.65 1000.19 999.76 999.37 998.99 998.64 998.31 997.99
1018.20 1018.02 1017.80 1017.53 1017.19 1016.75 1016.22 1015.61 1014.92 1014.17 1013.40 1012.62 1011.86 1011.12 1010.41 1009.72 1009.05 1008.38 1007.70 1007.00 1006.29 1005.55 1004.80 1004.05 1003.30 1002.56 1001.85 1001.18 1000.55 999.97 999.44 998.96 998.52 998.12 997.76 997.42 997.10 996.80
1017.84 1017.59 1017.31 1016.97 1016.57 1016.09 1015.53 1014.89 1014.20 1013.46 1012.70 1011.93 1011.18 1010.44 1009.72 1009.01 1008.31 1007.60 1006.89 1006.15 1005.40 1004.62 1003.83 1003.04 1002.24 1001.46 1000.71 1000.00 999.33 998.71 998.15 997.65 997.21 996.82 996.47 996.16 995.88 995.62
1017.48 1017.17 1016.82 1016.42 1015.96 1015.43 1014.83 1014.18 1013.48 1012.75 1012.00 1011.26 1010.52 1009.79 1009.07 1008.35 1007.63 1006.89 1006.14 1005.37 1004.56 1003.74 1002.90 1002.05 1001.20 1000.37 999.56 998.80 998.08 997.42 996.83 996.31 995.85 995.47 995.14 994.86 994.63 994.42
1017.11 1016.74 1016.33 1015.87 1015.35 1014.78 1014.15 1013.48 1012.78 1012.06 1011.33 1010.61 1009.89 1009.18 1008.47 1007.75 1007.02 1006.26 1005.48 1004.66 1003.81 1002.93 1002.03 1001.12 1000.21 999.32 998.45 997.62 996.85 996.14 995.50 994.95 994.48 994.08 993.77 993.51 993.31 993.13
1016.70 1016.28 1015.81 1015.30 1014.73 1014.12 1013.47 1012.79 1012.09 1011.39 1010.69 1010.00 1009.31 1008.63 1007.93 1007.22 1006.48 1005.70 1004.88 1004.02 1003.12 1002.19 1001.23 1000.26 999.29 998.33 997.40 996.50 995.67 994.89 994.20 993.60 993.09 992.66 992.33 992.07 991.87 991.71
1016.23 1015.76 1015.25 1014.69 1014.09 1013.46 1012.79 1012.11 1011.43 1010.75 1010.08 1009.42 1008.77 1008.11 1007.43 1006.73 1005.98 1005.19 1004.34 1003.44 1002.50 1001.52 1000.51 999.48 998.45 997.43 996.43 995.47 994.56 993.71 992.95 992.26 991.68 991.19 990.80 990.49 990.27 990.10
1015.71 1015.20 1014.65 1014.06 1013.44 1012.80 1012.13 1011.46 1010.80 1010.15 1009.51 1008.88 1008.26 1007.62 1006.96 1006.26 1005.51 1004.70 1003.82 1002.89 1001.91 1000.88 999.83 998.75 997.67 996.60 995.54 994.52 993.53 992.60 991.73 990.94 990.25 989.65 989.16 988.77 988.47 988.27
1015.17 1014.63 1014.06 1013.45 1012.83 1012.18 1011.52 1010.87 1010.22 1009.60 1008.99 1008.39 1007.78 1007.16 1006.50 1005.80 1005.03 1004.20 1003.30 1002.34 1001.32 1000.26 999.17 998.06 996.95 995.83 994.72 993.63 992.56 991.53 990.55 989.63 988.80 988.05 987.42 986.90 986.51 986.24
1014.66 1014.10 1013.51 1012.91 1012.29 1011.65 1011.00 1010.37 1009.74 1009.13 1008.54 1007.95 1007.35 1006.73 1006.06 1005.34 1004.55 1003.69 1002.76 1001.77 1000.72 999.64 998.52 997.39 996.26 995.11 993.96 992.81 991.67 990.53 989.42 988.35 987.35 986.44 985.63 984.96 984.44 984.08
1014.21 1013.65 1013.08 1012.48 1011.87 1011.25 1010.62 1009.99 1009.38 1008.78 1008.19 1007.60 1006.99 1006.35 1005.65 1004.90 1004.07 1003.18 1002.21 1001.18 1000.11 999.01 997.89 996.75 995.60 994.44 993.26 992.06 990.84 989.61 988.37 987.14 985.96 984.86 983.87 983.03 982.37 981.90
1013.87 1013.33 1012.78 1012.20 1011.61 1011.00 1010.39 1009.78 1009.17 1008.56 1007.96 1007.34 1006.70 1006.02 1005.29 1004.48 1003.61 1002.67 1001.66 1000.61 999.52 998.40 997.28 996.14 995.00 993.83 992.64 991.40 990.12 988.80 987.44 986.07 984.72 983.44 982.27 981.26 980.45 979.87
1013.66 1013.15 1012.62 1012.08 1011.51 1010.92 1010.31 1009.70 1009.08 1008.46 1007.83 1007.17 1006.49 1005.76 1004.97 1004.11 1003.19 1002.19 1001.15 1000.07 998.96 997.84 996.72 995.60 994.47 993.32 992.13 990.88 989.56 988.16 986.71 985.22 983.73 982.28 980.95 979.78 978.83 978.15
1013.57 1013.09 1012.60 1012.08 1011.53 1010.94 1010.34 1009.72 1009.08 1008.44 1007.77 1007.07 1006.33 1005.54 1004.69 1003.78 1002.80 1001.76 1000.68 999.58 998.47 997.35 996.25 995.16 994.06 992.93 991.76 990.52 989.19 987.76 986.25 984.67 983.08 981.51 980.04 978.74 977.68 976.90
1013.56 1013.12 1012.65 1012.14 1011.60 1011.02 1010.41 1009.78 1009.11 1008.43 1007.72 1006.97 1006.18 1005.34 1004.44 1003.47 1002.45 1001.38 1000.28 999.16 998.06 996.96 995.90 994.84 993.79 992.72 991.59 990.38 989.08 987.65 986.13 984.51 982.86 981.22 979.66 978.27 977.10 976.23
1013.60 1013.17 1012.71 1012.21 1011.67 1011.08 1010.45 1009.78 1009.09 1008.37 1007.61 1006.82 1005.99 1005.10 1004.15 1003.15 1002.10 1001.02 999.92 998.81 997.73 996.68 995.66 994.66 993.68 992.67 991.61 990.47 989.22 987.85 986.35 984.75 983.09 981.43 979.83 978.38 977.15 976.19
1013.62 1013.20 1012.74 1012.22 1011.66 1011.04 1010.38 1009.68 1008.95 1008.18 1007.39 1006.56 1005.68 1004.77 1003.80 1002.78 1001.73 1000.66 999.58 998.51 997.47 996.48 995.53 994.61 993.71 992.79 991.83 990.78 989.62 988.32 986.90 985.37 983.76 982.13 980.54 979.07 977.80 976.78
1013.61 1013.17 1012.68 1012.13 1011.53 1010.87 1010.16 1009.42 1008.64 1007.83 1007.00 1006.14 1005.24 1004.31 1003.34 1002.33 1001.30 1000.27 999.23 998.23 997.26 996.35 995.48 994.66 993.86 993.05 992.19 991.26 990.21 989.03 987.72 986.29 984.77 983.22 981.68 980.25 978.97 977.92
1013.54 1013.06 1012.52 1011.92 1011.26 1010.55 1009.78 1008.98 1008.15 1007.30 1006.44 1005.55 1004.64 1003.71 1002.75 1001.78 1000.80 999.83 998.87 997.94 997.07 996.25 995.49 994.78 994.09 993.39 992.66 991.85 990.93 989.89 988.72 987.42 986.04 984.60 983.16 981.79 980.55 979.49
1013.42 1012.88 1012.28 1011.61 1010.88 1010.09 1009.26 1008.40 1007.52 1006.62 1005.72 1004.81 1003.90 1002.98 1002.06 1001.15 1000.23 999.34 998.47 997.65 996.89 996.18 995.53 994.93 994.36 993.78 993.17 992.49 991.71 990.82 989.80 988.66 987.42 986.13 984.82 983.55 982.38 981.37
Thickness
5482 5475 5467 5461 5453 5444 5435 5426 5421 5431 5445 5441 5429 5419 5404 5391 5380 5369 5360 5351 5344 5338 5333 5328 5325 5322 5321 5322 5324 5327 5329 5332 5335 5339 5342 5346 5351 5357
5470 5463 5455 5447 5438 5429 5420 5412 5402 5398 5407 5416 5407 5396 5380 5362 5346 5331 5318 5308 5300 5294 5291 5291 5292 5294 5297 5302 5306 5310 5313 5316 5319 5322 5324 5327 5330 5335
5457 5450 5441 5434 5425 5416 5407 5398 5388 5378 5379 5390 5382 5371 5354 5335 5319 5302 5286 5275 5267 5263 5261 5262 5265 5270 5276 5282 5289 5295 5299 5302 5304 5306 5307 5309 5312 5317
5443 5435 5427 5421 5413 5403 5393 5382 5372 5360 5350 5352 5354 5340 5325 5306 5292 5279 5267 5255 5247 5244 5243 5244 5248 5252 5258 5265 5273 5279 5284 5287 5290 5292 5292 5293 5294 5297
5427 5419 5413 5406 5398 5388 5377 5366 5354 5343 5328 5316 5313 5305 5297 5283 5272 5264 5254 5246 5239 5235 5234 5235 5238 5243 5249 5255 5261 5267 5271 5275 5277 5279 5279 5280 5281 5283
5413 5406 5399 5390 5382 5373 5362 5350 5336 5322 5307 5294 5287 5281 5275 5267 5257 5253 5252 5245 5239 5233 5233 5235 5237 5240 5245 5249 5254 5258 5261 5264 5265 5267 5268 5270 5271 5273
5400 5392 5384 5377 5368 5356 5345 5331 5314 5299 5288 5280 5273 5267 5261 5256 5252 5248 5248 5248 5245 5236 5239 5241 5239 5241 5242 5244 5247 5251 5254 5256 5258 5259 5261 5263 5265 5267
5388 5380 5371 5361 5350 5340 5325 5310 5293 5278 5270 5265 5259 5255 5254 5249 5247 5245 5243 5244 5250 5245 5241 5246 5241 5245 5246 5246 5248 5250 5252 5254 5255 5257 5260 5262 5265 5267
5374 5366 5357 5344 5330 5318 5307 5295 5280 5266 5258 5254 5252 5250 5248 5247 5245 5245 5243 5242 5243 5243 5242 5250 5248 5249 5249 5249 5250 5253 5255 5257 5259 5262 5265 5268 5270 5271
5359 5348 5337 5326 5311 5301 5293 5282 5269 5260 5255 5251 5248 5247 5247 5246 5244 5243 5244 5246 5247 5244 5242 5247 5251 5251 5253 5251 5252 5256 5260 5264 5268 5271 5274 5276 5277 5278
5344 5331 5318 5308 5297 5287 5278 5270 5264 5259 5254 5251 5248 5247 5246 5245 5243 5243 5243 5243 5249 5251 5245 5243 5248 5251 5253 5254 5258 5262 5266 5271 5274 5277 5279 5281 5281 5281
5331 5315 5299 5288 5279 5271 5265 5260 5257 5256 5255 5253 5248 5246 5245 5244 5243 5239 5236 5238 5244 5249 5250 5244 5245 5245 5256 5261 5263 5265 5269 5274 5279 5283 5285 5286 5285 5283
5314 5299 5284 5273 5266 5261 5256 5252 5251 5253 5251 5247 5247 5248 5248 5247 5244 5241 5237 5235 5239 5245 5247 5244 5245 5244 5244 5257 5270 5275 5278 5281 5284 5286 5288 5289 5288 5286
5294 5280 5270 5264 5258 5253 5249 5247 5249 5247 5243 5243 5245 5246 5245 5245 5245 5244 5243 5242 5242 5245 5248 5247 5248 5250 5254 5260 5270 5284 5288 5289 5290 5292 5292 5293 5293 5292
5275 5265 5258 5254 5250 5245 5243 5244 5243 5239 5240 5241 5241 5241 5241 5242 5244 5246 5248 5248 5250 5253 5256 5256 5256 5259 5261 5266 5272 5283 5290 5297 5299 5298 5299 5300 5302 5302
5262 5254 5249 5244 5241 5240 5240 5238 5236 5235 5235 5235 5235 5237 5239 5241 5243 5244 5247 5250 5256 5263 5266 5265 5266 5267 5271 5276 5279 5285 5291 5296 5305 5309 5312 5316 5318 5317
5254 5246 5241 5238 5236 5235 5234 5232 5232 5231 5229 5229 5230 5232 5235 5237 5239 5241 5243 5248 5253 5260 5269 5274 5276 5278 5282 5284 5287 5293 5298 5306 5313 5319 5323 5328 5333 5335
5243 5237 5233 5230 5229 5230 5229 5229 5227 5226 5225 5225 5226 5227 5229 5231 5234 5238 5241 5246 5252 5259 5265 5271 5277 5284 5290 5297 5296 5297 5303 5311 5318 5324 5329 5335 5345 5352
5233 5230 5227 5225 5224 5224 5223 5223 5223 5223 5222 5222 5223 5225 5226 5228 5230 5234 5239 5245 5252 5259 5265 5269 5274 5278 5283 5290 5300 5302 5302 5310 5318 5326 5332 5339 5350 5360
5227 5225 5223 5222 5221 5220 5220 5220 5221 5222 5221 5221 5222 5223 5224 5226 5228 5232 5237 5243 5251 5259 5264 5269 5273 5278 5282 5286 5291 5298 5302 5305 5313 5322 5331 5342 5353 5364
5224 5223 5221 5220 5219 5219 5219 5219 5220 5220 5221 5221 5222 5224 5225 5226 5229 5232 5237 5244 5251 5255 5261 5267 5272 5278 5282 5287 5292 5299 5303 5305 5307 5314 5325 5341 5351 5360
5222 5221 5221 5220 5220 5220 5221 5221 5222 5223 5224 5224 5225 5227 5228 5228 5231 5234 5239 5244 5250 5254 5258 5265 5272 5277 5280 5284 5289 5295 5300 5306 5311 5316 5321 5329 5338 5351
5221 5221 5221 5222 5223 5223 5224 5225 5226 5227 5228 5229 5230 5231 5232 5233 5235 5238 5242 5246 5249 5253 5259 5265 5271 5275 5279 5282 5287 5293 5299 5304 5311 5318 5323 5329 5337 5347